Weather Roundup
Issued by NWS Corpus Christi, TX

Home | Current Version | Previous Version | Text Only | Print | Product List | Glossary On
Versions: 1 2 3 4 5 6 7 8 9 10 11 12 13 14 15 16 17 18 19 20 21 22 23 24 25 26 27 28 29 30 31 32 33 34 35 36 37 38 39 40 41 42 43 44 45 46 47 48 49 50
000
ASUS44 KCRP 190710
HRRCRP

SOUTH TEXAS REGIONAL WEATHER ROUNDUP
NATIONAL WEATHER SERVICE CORPUS CHRISTI TX
200 AM CDT SAT APR 19 2014


TXZ229>244-190800-
...CORPUS CHRISTI AREA OBSERVATIONS...

CITY           SKY/WX    TMP DP  RH WIND       PRES   REMARKS
CORPUS CHRISTI MOCLDY    63  59  87 E6        30.12F
NAS CORPUS CHR MOCLDY    65  61  87 SE8       30.11F
ROCKPORT       PTCLDY    61  59  93 CALM      30.12F
KINGSVILLE NAS MOCLDY    59  55  87 NE3       30.11F
ALICE          MOCLDY    57  53  86 CALM      30.11F
FALFURRIAS     CLOUDY    59  56  88 CALM      30.12R
$$

...VICTORIA AREA OBSERVATIONS...

CITY           SKY/WX    TMP DP  RH WIND       PRES   REMARKS
VICTORIA       FOG       55  55 100 CALM      30.14F VSB 1/4
BEEVILLE       FAIR      59  57  94 E5        30.12F
PLEASANTON     CLEAR     61  55  80 CALM      30.13S
SAN ANTONIO    MOCLDY    62  55  77 SE3       30.13F
$$

...LAREDO AREA OBSERVATIONS...

CITY           SKY/WX    TMP DP  RH WIND       PRES   REMARKS
LAREDO         MOCLDY    66  53  63 SE9       30.13F
COTULLA        MOCLDY    63  51  65 SE6       30.10F
DEL RIO        MOCLDY    70  53  54 SE9G20    30.06S
MCALLEN        CLOUDY    62  60  93 CALM      30.11F
HEBBRONVILLE   CLOUDY    60  56  87 SE3       30.12F
$$

...OTHER TEXAS OBSERVATIONS...

CITY           SKY/WX    TMP DP  RH WIND       PRES   REMARKS
BROWNSVILLE    CLOUDY    62  61  96 CALM      30.10F
HOUSTON        PTCLDY    60  55  83 CALM      30.13F
COL. STATION   PTCLDY    61  53  75 CALM      30.13S
AUSTIN         PTCLDY    52  51  97 CALM      30.13F
WACO           PTCLDY    51  50  96 VRB5      30.14S
FORT WORTH     MOCLDY    60  46  59 S5        30.13S
WICHITA FALLS  CLOUDY    54  49  83 SE7       30.13S
LUBBOCK        PTCLDY    54  42  64 SE9       30.10S
EL PASO        CLOUDY    68  44  42 E10       30.00F
$$

...MARINE OBSERVATIONS...

STATION/POSITION TIME  SKY/WX   TEMP    WIND        PRES    VSBY  WAVE   SWELL
                                AIR SEA DIR/SP/G                  HT/PER HT/PER
                 (UTC)          (F)     (DEG/KT/KT) (MB)    (MI)  (FT/S) (FT/S)
PORT ARANSAS     0700            66 67  140/  5/  6 1019.9F
BUOY 90 E PORT A NOT AVBL
BUOY 45 SE BAFFI 0700            68 67  120/  8/ 10 1019.5F         4/ 9   3/ 9
BUOY 200 E PT IS NOT AVBL
BUOY 15 E GALVES 0700            67 66   10/  4/  6 1019.8F         1/ 8   2/ 8
$$



USA.gov is the U.S. government's official web portal to all federal, state and local government web resources and services.